sat.trackr.live / text

‹ back to catalog

YAOGAN-12

NORAD 37875 · 2011-066B

PAYLOAD ACTIVE UNKNOWN

§ Identity

Operator
Country
PRC
Launch date
2011-11-09
Launch site
TAISC
Launch vehicle
Mass (kg)
RCS (m²)
5.75

External: N2YO · Heavens-Above · Gunter

§ Orbital elements

Epoch: 2026-09-20T05:12:37.453824Z

Period
94.28 min
Inclination
97.1074°
Eccentricity
0.0008322
Mean motion
15.27401051 rev/d
Perigee alt
477.9 km
Apogee alt
489.3 km
Semi-major
6,861.7 km
B*
7.9044e-5
RAAN
297.3279°
Arg perigee
241.4596°
Mean anomaly
118.5807°
Rev number
82,654

§ Raw data

YAOGAN-121 37875U 11066B   26263.21710016  .00002052  00000+0  79044-4 0  99972 37875  97.1074 297.3279 0008322 241.4596 118.5807 15.27401051826546

JSON: /api/v1/satellites/37875 · /tle

For live sub-satellite position, see the globe view (requires WebGL).

§ Visibility from observer

Set your observer location to see the next 7 days of passes ≥ 10°. The values pass through the URL so the page stays shareable.

No JS? Fill the form by hand. The geolocation button needs JavaScript.

§ Radio — SatNOGS DB

ModeDescriptionDownlinkUplink
FM S-band telemetry 2.208 GHz

1 transmitter · refreshed weekly from db.satnogs.org